Home > Weather > Lillesand > Past weeks

Flag for Norway Past Weather in Lillesand, Norway — Yesterday and Last 2 Weeks

Now
58 °F

Cool.


Feels Like: 58 °F
Forecast: 58 / 69 °F
Wind: 3 mph from Northeast

Location: Kristiansand / Kjevik

Current Time: May 30, 2016 at 6:43:15 PM

Latest Report: May 30, 2016 at 6:00 PM


Visibility: N/A

Pressure: 30.05 "Hg

Humidity: 88%

Dew Point: 54 °F

Location of LillesandLocation

Past Weather in Lillesand — Graph

°F

Lillesand Temperature Yesterday

Maximum temperature yesterday: 59 °F (at 8:00 PM)
Minimum temperature yesterday: 56 °F (at 2:00 AM)
Average temperature yesterday: 57 °F

High & Low Weather Summary for the Past Weeks

 TemperatureHumidityPressure
High66 °F (May 24, 2:00 PM)98% (May 20, 2:00 AM)30.18 "Hg (May 20, 2:00 AM)
Low35 °F (May 16, 6:00 AM)27% (May 16, 6:00 PM)29.65 "Hg (May 17, 7:00 PM)
Average55 °F76%29.92 "Hg
* Reported May 15 5:00 PM — May 30 5:00 PM, Lillesand, Weather by CustomWeather, © 2016

Note: Actual official high and low records may vary slightly from our data, if they occured in-between our weather recording intervals... More about our weather records

Advertising

Lillesand Weather History for the Previous 24 Hours

Scroll right to see more
 ConditionsComfort  
Time TempWeatherWind HumidityBarometerVisibility
5:00 PM
Mon, May 30
56 °FCool.8 mph94%30.06 "HgN/A
4:00 PM56 °FCool.8 mph94%30.06 "HgN/A
3:00 PM57 °FCool.8 mph88%30.06 "HgN/A
2:00 PM58 °FCool.9 mph85%30.05 "HgN/A
1:00 PM57 °FCool.7 mph89%30.06 "HgN/A
12:00 PM57 °FCool.9 mph88%30.06 "HgN/A
11:00 AM57 °FCool.9 mph87%30.06 "HgN/A
10:00 AM56 °FCool.8 mph89%30.06 "HgN/A
9:00 AM56 °FCool.10 mph91%30.07 "HgN/A
8:00 AM56 °FCool.7 mph93%30.05 "HgN/A
7:00 AM56 °FCool.7 mph92%30.06 "HgN/A
6:00 AM56 °FCool.8 mph93%30.03 "HgN/A
5:00 AM57 °FCool.7 mph93%30.05 "HgN/A
4:00 AM58 °FCool.8 mph88%30.07 "HgN/A
3:00 AM58 °FCool.7 mph86%30.07 "HgN/A
2:00 AM58 °FCool.6 mph84%30.08 "HgN/A
1:00 AM58 °FCool.6 mph84%30.07 "HgN/A
12:00 AM57 °FCool.6 mph87%30.08 "HgN/A
11:00 PM
Sun, May 29
58 °FCool.5 mph86%30.09 "HgN/A
10:00 PM58 °FCool.6 mph85%30.08 "HgN/A
9:00 PM59 °FCool.5 mph84%30.07 "HgN/A
8:00 PM59 °FCool.7 mph82%30.07 "HgN/A
Weather by CustomWeather, © 2016

See weather overviewHow to use our weather pages